Jaipur, India

11:16 AM IST on May 23, 2017 (GMT +0530)
Jaipur

Weather History for VIJP - March, 2012

Change the Weather History Date:

Friday, March 2, 2012

  Actual Average Record
Temperature  
Mean Temperature 72 °F -  
Max Temperature 86 °F - - ()
Min Temperature 57 °F - - ()
Cooling Degree Days 6    
Growing Degree Days 22 (Base 50)    
Moisture  
Dew Point 42 °F    
Average Humidity 34    
Maximum Humidity 63    
Minimum Humidity 10    
Precipitation  
Precipitation 0.00 in - - ()
Sea Level Pressure  
Sea Level Pressure 29.78 in    
Wind  
Wind Speed 2 mph ()    
Max Wind Speed 10 mph    
Max Gust Speed -    
Visibility 1.9 miles    
Events      
T = Trace of Precipitation, MM = Missing Value Source: Averaged Metar Reports

Daily Weather History Graph

Daily Weather History Graph

Search for Another Location

Airport or City:

Trip Planner

Search our weather history database for the weather conditions in past years. The results will help you decide how hot, cold, wet, or windy it might be!

Date:

Astronomy

Mar. 02, 2012 Rise Set
Actual Time 6:49 AM IST 6:28 PM IST
Civil Twilight 6:26 AM IST 6:51 PM IST
Nautical Twilight 5:59 AM IST 7:18 PM IST
Astronomical Twilight 5:32 AM IST 7:45 PM IST
Moon 12:40 PM IST (3/2) 1:52 AM IST (3/2)
Length of Visible Light 12h 25m
Length of Day
11h 38m
First Quarter, 62% of the Moon is Illuminated
Mar 2
First Quarter
Mar 8
Full
Mar 15
Last Quarter
Mar 22
New
Mar 31
First Quarter

Hourly Weather History & Observations

Time (IST) Temp. Dew Point Humidity Pressure Visibility Wind Dir Wind Speed Gust Speed Precip Events Conditions
12:00 AM 64.4 °F 42.8 °F 45% 29.80 in 1.9 mi Calm Calm - N/A   Haze
1:00 AM 64.4 °F 44.6 °F 49% 29.80 in 1.9 mi Calm Calm - N/A   Haze
2:00 AM 62.6 °F 42.8 °F 48% 29.77 in 1.9 mi Calm Calm - N/A   Haze
2:30 AM 63 °F 45 °F 40% 29.75 in 1 mi Calm Calm - -   Haze
3:00 AM 60.8 °F 42.8 °F 52% 29.77 in 1.9 mi Calm Calm - N/A   Haze
4:00 AM 59.0 °F 44.6 °F 59% 29.77 in 1.9 mi Calm Calm - N/A   Haze
5:00 AM 59.0 °F 44.6 °F 59% 29.77 in 1.9 mi Calm Calm - N/A   Haze
5:30 AM 60 °F 43 °F 41% 29.74 in 1 mi Calm Calm - -   Haze
6:00 AM 59.0 °F 44.6 °F 59% 29.77 in 1.9 mi Calm Calm - N/A   Haze
7:00 AM 59.0 °F 46.4 °F 63% 29.77 in 1.9 mi Calm Calm - N/A   Haze
8:00 AM 62.6 °F 46.4 °F 55% 29.80 in 1.9 mi Calm Calm - N/A   Haze
8:30 AM 66 °F 45 °F 35% 29.79 in 1 mi Calm Calm - -   Haze
9:00 AM 71.6 °F 41.0 °F 33% 29.83 in 1.9 mi Variable 4.6 mph - N/A   Haze
9:30 AM 75.2 °F 41.0 °F 29% 29.86 in 1.9 mi Variable 5.8 mph - N/A   Haze
10:00 AM 77.0 °F 41.0 °F 28% 29.86 in 1.9 mi Variable 5.8 mph - N/A   Haze
10:30 AM 78.8 °F 42.8 °F 28% 29.86 in 1.9 mi Variable 4.6 mph - N/A   Haze
11:00 AM 78.8 °F 42.8 °F 28% 29.86 in 1.9 mi NW 8.1 mph - N/A   Haze
11:30 AM 79 °F 40 °F 15% 29.76 in 1 mi NW 6.9 mph - -   Haze
11:30 AM 80.6 °F 42.8 °F 26% 29.86 in 1.9 mi NW 6.9 mph - N/A   Haze
12:00 PM 80.6 °F 42.8 °F 26% 29.83 in 1.9 mi Variable 4.6 mph - N/A   Haze
12:30 PM 82.4 °F 42.8 °F 25% 29.83 in 2.5 mi WNW 6.9 mph - N/A   Haze
2:00 PM 84.2 °F 39.2 °F 20% 29.80 in 2.5 mi West 10.4 mph - N/A   Haze
2:30 PM 85 °F 37 °F 10% 29.70 in 2 mi WNW 6.9 mph - -   Haze
3:00 PM 84.2 °F 39.2 °F 20% 29.74 in 2.5 mi West 6.9 mph - N/A   Haze
4:00 PM 84.2 °F 41.0 °F 22% 29.74 in 2.5 mi Variable 6.9 mph - N/A   Haze
5:00 PM 84.2 °F 39.2 °F 20% 29.74 in 2.5 mi NW 5.8 mph - N/A   Haze
5:30 PM 85 °F 41 °F 12% 29.67 in 2 mi NW 4.6 mph - -   Haze
6:00 PM 82.4 °F 39.2 °F 21% 29.74 in - North - - N/A   Haze
7:00 PM 78.8 °F 39.2 °F 24% 29.74 in 2.2 mi Calm Calm - N/A   Haze
8:00 PM 77.0 °F 41.0 °F 28% 29.77 in 2.2 mi Calm Calm - N/A   Haze
8:30 PM 75 °F 41 °F 19% 29.71 in 1 mi Calm Calm - -   Haze
8:30 PM 73.4 °F 42.8 °F 33% 29.77 in 2.2 mi Calm Calm - N/A   Haze
9:00 PM 71.6 °F 42.8 °F 35% 29.77 in 1.9 mi Calm Calm - N/A   Haze
10:00 PM 69.8 °F 44.6 °F 40% 29.80 in 1.9 mi Calm Calm - N/A   Haze
11:00 PM 68.0 °F 44.6 °F 43% 29.80 in 1.9 mi Variable 1.2 mph - N/A   Haze
11:30 PM 69 °F 45 °F 30% 29.75 in 1 mi Calm Calm - -   Haze
11:30 PM 68.0 °F 41.0 °F 37% 29.80 in 1.9 mi Calm Calm - N/A   Haze